DW9082 Weather Reports


time (UTC)temp
C
wind
direction
speed
KPH
gust
KPH
rain 1hr
cm
rain 24hr
cm
rain mn
cm
humidity
%
barometer
mb
20260505063011 14 217 0.0 8.0 0.00 0.00 0.00 80 1010.9
20260505061540 14 224 1.6 6.4 0.00 0.00 0.00 80 1011.0
20260505060040 14 158 0.0 12.9 0.00 0.00 0.00 78 1011.0
20260505054557 15 205 1.6 11.3 0.00 0.00 0.00 77 1011.0
20260505053037 15 251 1.6 14.5 0.00 0.00 0.00 75 1011.2
20260505051551 15 184 1.6 16.1 0.00 0.00 0.00 74 1011.0
20260505041513 15 151 4.8 17.7 0.00 0.00 0.00 72 1011.3
20260505040034 15 136 3.2 14.5 0.00 0.00 0.00 72 1011.3
20260505034511 15 211 4.8 19.3 0.00 0.00 0.00 72 1011.2
20260505033048 15 231 4.8 12.9 0.00 0.00 0.00 71 1011.1
20260505031532 15 180 4.8 17.7 0.00 0.00 0.00 71 1011.1
20260505030011 16 196 3.2 12.9 0.00 0.00 0.00 70 1011.3
20260505024533 16 160 4.8 22.5 0.00 0.00 0.00 69 1011.4
20260505023012 16 146 6.4 17.7 0.00 0.00 0.00 68 1011.5
20260505021531 16 156 3.2 12.9 0.00 0.00 0.00 67 1011.4
20260505020014 16 184 3.2 14.5 0.00 0.00 0.00 64 1011.4
20260505014551 16 165 4.8 11.3 0.00 0.00 0.00 62 1011.5
20260505013008 16 132 1.6 9.7 0.00 0.00 0.00 58 1011.3
20260505011538 17 129 4.8 11.3 0.00 0.00 0.00 55 1011.1
20260505010039 17 194 3.2 11.3 0.00 0.00 0.00 54 1011.0
20260505004552 17 136 3.2 11.3 0.00 0.00 0.00 52 1010.9
20260505003046 17 198 3.2 9.7 0.00 0.00 0.00 51 1010.8
20260505001513 18 205 1.6 9.7 0.00 0.00 0.00 49 1010.7
20260505000057 18 184 1.6 9.7 0.00 0.00 0.00 47 1010.5
20260504234512 20 166 3.2 6.4 0.00 0.00 0.00 44 1010.5
20260504233050 21 181 1.6 9.7 0.00 0.00 0.00 41 1010.4
20260504231517 21 239 0.0 6.4 0.00 0.00 0.00 40 1010.3
20260504230046 21 200 1.6 22.5 0.00 0.00 0.00 39 1010.4
20260504224516 21 193 6.4 17.7 0.00 0.00 0.00 38 1010.4
20260504223059 21 219 4.8 20.9 0.00 0.00 0.00 38 1010.3
20260504221510 22 240 8.0 16.1 0.00 0.00 0.00 37 1010.4
20260504220042 22 255 6.4 22.5 0.00 0.00 0.00 37 1010.5
20260504214534 22 200 11.3 25.7 0.00 0.00 0.00 37 1010.5
20260504213032 22 175 6.4 19.3 0.00 0.00 0.00 37 1010.5
20260504211529 22 225 12.9 24.1 0.00 0.00 0.00 36 1010.4
20260504210042 22 262 6.4 22.5 0.00 0.00 0.00 36 1010.4
20260504204510 22 271 11.3 24.1 0.00 0.00 0.00 36 1010.5
20260504203043 22 123 8.0 22.5 0.00 0.00 0.00 36 1010.5
20260504201530 22 229 4.8 24.1 0.00 0.00 0.00 35 1010.6
20260504200018 22 249 8.0 22.5 0.00 0.00 0.00 34 1010.7
20260504194559 22 226 8.0 29.0 0.00 0.00 0.00 33 1010.8
20260504193053 22 197 9.7 24.1 0.00 0.00 0.00 35 1010.9
20260504191529 22 224 9.7 27.4 0.00 0.00 0.00 35 1011.2
20260504190108 21 139 8.0 19.3 0.00 0.00 0.00 35 1011.4
20260504184546 21 204 12.9 22.5 0.00 0.00 0.00 35 1011.7
20260504183053 21 208 9.7 25.7 0.00 0.00 0.00 35 1011.9
20260504181538 21 240 6.4 16.1 0.00 0.00 0.00 34 1012.2
20260504180015 21 207 8.0 27.4 0.00 0.00 0.00 37 1012.5
20260504174536 20 302 3.2 30.6 0.00 0.00 0.00 37 1012.6
20260504173003 21 174 6.4 19.3 0.00 0.00 0.00 36 1012.7
20260504171523 20 253 6.4 16.1 0.00 0.00 0.00 38 1012.9
20260504081539 7 224 0.0 4.8 0.00 0.00 0.00 73 1015.8